Theta_e
312 311 312 311 312 301 308 310 305 309 316 313 308 309 310 310 306 304 312 310 313 318 319 321 323 323 324 325 324 324 326 326 329 328 329 332 334 335 337 339 345 347 346 350 350 352 352 353 354 354 357 358 360 360 362 366 368 370 369 371 371 370 370
313 315 313 312 312 312 311 305 308 315 318 315 310 303 306 304 301 304 308 306 309 309 306 319 320 320 320 323 323 324 325 326 325 326 328 332 335 336 338 343 348 348 347 348 350 351 352 353 355 357 360 360 361 361 364 366 368 369 370 371 371 371 370
314 315 313 310 312 314 309 308 316 307 303 303 309 308 300 300 299 302 306 308 308 310 311 317 317 318 319 322 324 323 322 323 324 326 327 331 337 340 341 342 346 347 346 347 350 349 350 354 359 360 359 360 360 362 365 365 367 367 369 369 371 371 371
313 313 310 302 305 311 312 313 311 314 310 307 305 307 308 307 301 301 302 306 305 313 314 317 318 320 321 321 322 322 323 323 324 326 326 328 335 339 340 344 345 347 347 347 349 349 350 353 358 358 358 359 359 360 364 364 365 368 369 368 370 370 370
311 305 308 305 306 304 305 305 305 310 310 312 312 311 307 305 303 302 302 301 307 314 319 318 319 321 322 322 321 322 323 323 324 326 326 329 333 338 340 343 346 347 348 349 349 350 350 352 356 356 357 358 358 358 360 360 362 363 364 364 367 370 370
305 306 312 310 309 309 307 305 304 307 306 305 302 301 311 308 304 300 301 301 311 316 320 320 320 322 322 324 323 322 323 323 327 325 327 329 329 340 343 341 344 347 349 350 351 351 349 349 352 354 355 356 354 355 357 357 357 360 357 361 365 370 370
306 309 312 313 313 312 310 309 306 308 308 310 305 298 303 308 308 310 308 304 308 320 322 322 322 322 322 324 323 323 324 325 326 327 326 328 333 338 342 342 340 343 350 351 351 353 351 348 351 353 352 350 349 351 353 355 353 356 355 356 362 370 370
311 312 313 314 313 311 308 309 310 308 305 307 308 307 309 306 308 305 305 303 307 318 325 324 322 326 324 324 324 324 324 324 325 326 326 332 334 344 344 341 336 341 348 353 355 355 355 353 354 353 351 348 347 348 349 352 351 352 353 353 358 367 369
304 307 309 308 311 310 307 306 309 310 309 309 310 311 312 306 306 307 304 300 306 316 322 323 323 322 322 322 323 324 324 325 325 326 328 332 337 346 344 344 344 346 346 352 357 358 360 358 350 355 351 346 345 347 348 349 351 350 352 353 356 364 366
295 296 297 299 302 304 307 308 308 309 308 308 306 302 306 300 309 310 305 305 312 317 322 321 321 321 323 323 324 324 325 326 325 325 327 341 341 348 349 348 344 344 352 358 362 364 364 357 351 359 357 347 344 347 349 350 350 351 351 351 353 360 365
303 305 309 311 310 308 303 305 306 306 308 309 308 307 303 301 306 306 309 311 311 314 316 318 319 320 320 321 323 322 323 324 325 332 338 337 344 349 348 348 346 354 360 359 360 363 358 354 354 355 353 350 346 353 351 349 349 352 353 353 355 357 364
310 311 310 311 311 308 307 306 306 307 307 307 307 304 302 311 305 300 309 314 310 311 315 317 319 320 322 322 324 323 324 324 325 333 349 350 346 350 349 348 348 350 355 357 358 359 358 355 356 356 355 354 351 353 351 350 349 350 353 355 354 355 362
310 310 311 311 311 310 310 309 308 307 307 306 305 307 308 310 304 301 310 313 311 312 314 317 319 321 322 322 323 323 324 324 326 333 336 340 344 348 347 348 351 352 350 356 357 356 357 357 357 357 356 356 358 357 355 355 349 349 355 357 357 356 361
309 310 310 311 309 309 309 309 309 309 308 307 306 306 308 307 309 310 310 313 311 313 315 316 318 321 323 323 324 325 325 323 328 326 327 325 328 339 347 349 349 353 354 356 359 359 361 358 358 356 357 359 356 356 356 354 354 351 356 360 363 360 361
308 310 311 310 310 309 308 309 310 310 310 309 308 307 307 309 308 308 308 311 311 316 319 318 320 322 322 324 323 322 325 324 323 324 323 324 325 327 334 354 351 354 356 358 360 360 360 358 358 358 359 359 358 356 356 356 356 353 354 364 362 363 367
306 310 310 311 310 309 308 307 309 309 309 308 309 307 309 307 307 308 307 306 307 313 317 320 321 321 321 320 322 324 323 323 325 325 324 325 327 327 328 332 350 355 356 359 360 359 358 357 359 360 361 359 357 355 357 356 356 355 357 361 362 368 368
305 309 310 309 309 308 304 305 307 309 310 311 311 311 312 310 309 306 304 306 312 315 317 316 318 320 320 321 320 322 325 332 326 326 325 325 325 328 339 339 350 354 355 357 362 360 359 357 359 360 361 358 358 358 360 360 360 356 357 361 367 368 369
304 308 309 310 306 298 300 310 314 312 309 310 309 309 310 312 312 310 312 312 315 315 315 314 316 317 320 322 326 326 326 327 330 326 326 325 325 326 326 330 345 356 357 357 361 362 361 360 360 361 364 360 360 359 360 361 359 361 364 365 367 368 370
305 309 310 304 298 299 312 314 315 315 313 313 311 312 312 313 315 314 313 313 314 316 316 317 317 320 320 321 322 323 324 327 325 326 324 327 328 329 329 335 331 354 360 359 363 363 360 358 360 361 361 361 362 358 360 359 363 367 364 365 368 370 370
310 308 305 296 298 311 313 314 315 316 315 314 312 310 312 314 314 315 314 315 315 317 317 318 320 321 319 319 323 325 324 323 323 322 323 325 326 326 327 342 353 361 355 358 360 362 361 358 359 359 360 359 359 356 359 361 361 362 365 366 368 370 369
302 304 304 303 311 309 311 311 313 313 311 312 310 306 310 315 316 316 315 316 317 317 317 317 319 321 320 320 320 322 321 322 323 323 324 323 327 327 330 335 338 354 362 361 361 364 359 358 359 358 359 359 357 356 359 360 363 361 363 366 368 370 369
308 303 302 302 301 299 306 316 320 320 319 319 319 316 309 316 317 318 317 316 317 318 318 318 319 321 318 315 317 321 322 323 324 324 324 324 325 326 325 341 338 355 361 360 361 360 358 356 358 360 360 359 358 359 360 361 362 362 363 364 368 370 370
306 304 301 300 299 304 317 317 318 320 321 319 319 312 306 316 317 318 317 316 317 317 317 318 320 316 312 312 318 324 325 325 325 324 323 322 323 326 328 335 345 358 360 359 360 361 358 356 359 361 360 360 359 359 361 360 361 362 363 365 368 369 370
305 304 301 300 305 306 315 318 317 318 321 319 314 301 303 316 329 331 330 328 328 328 320 319 318 315 311 312 319 323 326 327 329 330 331 332 331 330 333 344 357 360 363 362 360 355 355 359 361 364 359 361 360 359 358 360 360 361 363 366 368 371 371
303 302 304 306 309 318 319 318 319 320 320 316 306 299 312 324 328 328 329 327 327 330 329 324 315 319 320 321 325 325 326 325 327 327 329 333 334 333 336 346 355 357 356 357 356 354 358 364 360 362 359 357 359 360 361 361 360 361 365 368 370 371 370
302 304 302 303 308 319 320 321 320 322 315 304 303 320 327 327 325 329 328 327 331 330 331 332 323 320 322 323 323 325 332 334 338 337 336 337 336 338 344 352 354 355 351 357 356 355 361 361 359 356 361 361 360 360 359 359 362 363 368 370 370 369 368
305 306 303 300 295 316 321 321 318 321 312 314 323 325 326 324 325 327 328 329 330 331 329 332 333 332 321 321 322 325 332 338 339 339 340 341 341 346 352 352 354 352 353 352 352 354 353 352 355 358 362 362 361 361 361 363 365 368 369 369 368 367 366
301 301 299 300 311 320 321 319 313 323 322 322 325 324 322 326 327 328 329 330 334 333 331 330 332 332 330 327 328 331 338 342 342 342 345 349 353 352 350 350 350 349 349 350 352 355 354 360 364 366 366 363 363 364 365 368 368 368 368 368 367 364 363
307 305 307 320 321 321 321 322 321 322 324 326 326 327 327 327 328 332 329 330 333 334 334 332 333 330 330 333 336 338 340 342 343 346 348 349 348 347 348 348 355 355 356 357 355 359 360 364 364 365 366 364 363 362 363 364 363 364 364 364 362 360 359
320 320 321 321 321 320 321 322 323 323 323 326 328 328 329 329 331 331 330 330 332 334 337 334 335 334 333 334 332 337 336 339 343 345 345 346 347 349 350 351 352 352 353 355 355 354 355 356 359 361 364 364 361 360 362 361 362 362 360 358 356 355 355
310 304 317 318 319 321 321 321 322 324 324 325 327 329 330 330 331 331 331 333 333 332 333 335 333 331 332 331 337 340 341 340 340 340 343 345 346 347 347 349 350 349 348 347 347 349 350 353 354 355 359 360 361 361 360 359 360 360 357 354 352 352 353
311 313 317 318 321 322 322 322 321 320 322 324 327 328 328 329 330 332 332 332 332 333 333 335 336 335 337 337 338 338 339 341 344 345 345 343 342 345 346 345 344 343 342 343 344 345 346 349 352 353 353 355 357 357 355 355 355 355 353 353 352 353 352
315 318 318 319 321 320 320 321 322 323 323 323 323 324 325 325 327 328 330 332 335 334 334 335 333 332 333 335 336 333 334 335 336 338 341 346 351 352 349 348 349 349 349 347 347 345 345 346 346 345 345 346 348 350 352 355 357 355 352 350 353 351 349
308 310 316 316 311 311 318 319 320 321 322 322 321 322 321 322 324 325 324 325 327 329 333 334 335 334 335 337 338 337 338 338 340 340 339 341 343 346 349 350 352 352 352 351 349 348 348 348 347 347 347 348 350 350 352 354 356 355 353 352 351 347 346
310 319 320 322 321 319 319 321 322 323 322 321 319 319 320 320 321 321 321 321 322 323 324 327 328 330 332 335 335 335 337 338 340 339 340 339 339 340 342 343 345 347 348 349 348 347 347 347 346 345 346 346 349 349 352 355 354 354 353 350 347 345 344
317 320 320 321 320 316 317 319 321 322 323 320 318 319 320 319 320 321 320 320 320 321 323 323 324 324 326 328 330 332 334 335 337 338 339 339 340 341 343 345 345 346 346 347 347 346 346 346 345 346 345 347 350 351 353 353 354 354 353 348 345 343 343
317 320 320 320 318 318 319 320 320 321 321 320 318 318 319 319 320 320 320 319 319 319 319 321 323 323 322 322 325 327 329 330 333 335 336 337 336 337 337 340 343 344 344 344 346 348 348 348 347 347 347 349 351 352 354 353 353 352 351 348 343 341 342
Wind_Speed
18 20 19 21 20 16 14 17 21 20 16 18 16 16 17 18 16 17 11 14 15 15 18 12 12 12 13 17 18 17 17 17 13 10 11 13 11 15 19 22 21 21 21 22 21 22 21 21 22 22 20 20 20 19 19 20 20 18 19 18 17 16 15
21 17 20 22 23 18 12 18 20 19 19 19 15 16 13 16 17 14 17 19 16 16 14 13 18 17 15 15 17 18 20 16 14 12 12 13 18 19 21 21 20 22 22 24 23 22 24 24 24 23 21 21 19 19 20 20 20 20 19 18 18 16 16
19 19 17 20 23 25 22 14 14 18 17 21 18 13 19 20 18 13 16 21 20 16 12 11 18 22 18 19 19 19 19 16 14 13 14 15 18 18 17 21 19 20 21 22 23 24 25 23 22 22 21 21 20 19 20 21 21 21 20 17 17 15 16
15 16 15 17 18 23 28 23 16 18 16 17 19 17 14 14 16 16 18 21 16 14 15 16 14 19 19 21 22 22 18 17 17 16 15 14 12 13 17 19 19 20 22 24 26 25 25 24 23 22 23 21 23 21 20 20 19 18 18 18 16 16 16
13 15 15 19 18 19 21 22 21 14 15 14 16 18 18 15 16 16 13 17 15 13 13 17 17 17 17 19 21 18 16 19 18 13 12 11 14 16 16 17 19 21 22 23 24 24 23 23 22 21 22 23 22 21 21 22 21 21 21 19 18 16 15
16 17 18 21 20 19 18 19 21 20 16 17 19 19 17 20 18 10 14 16 11 13 13 14 14 13 12 14 18 19 20 19 14 11 16 15 13 15 16 16 17 18 20 21 22 21 20 21 22 24 22 22 22 22 21 21 21 20 21 20 18 17 16
15 18 18 20 21 21 20 19 20 23 19 14 16 16 17 18 18 19 18 15 14 10 12 13 12 14 18 15 14 15 15 14 13 12 13 16 15 15 15 15 15 17 19 19 19 21 22 23 22 23 22 22 22 23 22 20 21 22 21 20 18 16 16
13 15 17 19 21 22 21 21 21 21 23 21 16 14 13 14 19 20 18 18 15 13 9 8 9 12 16 16 16 13 12 13 12 14 16 7 14 14 14 12 14 14 16 17 15 18 18 17 18 22 21 21 21 21 21 21 23 23 22 20 19 18 17
12 13 14 15 18 18 16 16 19 21 22 29 23 17 15 18 20 21 17 19 14 13 16 13 11 13 15 16 16 17 17 16 15 15 12 5 5 9 12 13 13 13 15 17 14 15 15 15 19 19 20 20 21 20 21 21 21 22 20 19 19 19 19
17 17 17 17 17 19 15 19 22 23 28 30 24 21 18 15 14 21 19 18 13 13 15 18 18 15 14 15 16 18 18 15 14 15 11 12 10 9 11 11 12 14 12 11 11 13 13 17 19 16 16 20 21 20 22 20 20 19 20 19 20 19 19
14 14 11 10 13 13 17 20 24 25 25 24 22 17 20 20 14 17 18 18 13 16 18 18 21 15 13 12 12 12 12 16 18 15 5 9 8 10 13 11 10 9 10 13 15 14 16 20 18 17 19 19 20 17 20 21 19 18 18 18 17 19 19
18 15 16 14 15 18 19 21 21 24 25 24 25 22 21 17 17 18 16 15 20 22 18 18 19 19 17 16 14 14 12 13 13 10 10 11 11 11 11 13 14 14 12 12 14 16 17 18 18 17 18 18 18 18 20 20 19 18 16 16 17 17 18
23 24 21 17 17 19 20 19 19 21 24 26 27 25 25 22 19 20 17 18 21 20 26 24 19 17 18 18 18 20 17 15 13 9 11 11 12 13 15 15 14 14 15 14 16 17 17 19 19 19 18 17 15 15 17 17 19 19 16 16 17 17 16
20 22 24 23 22 19 20 21 21 22 23 25 27 25 24 28 22 20 19 17 21 21 23 25 25 20 18 18 17 18 19 17 13 13 13 17 17 14 12 14 15 14 15 15 16 17 17 19 19 19 17 16 18 18 17 18 16 17 14 16 15 16 16
16 18 20 23 25 22 22 22 23 25 24 23 25 26 27 26 26 27 25 21 20 16 16 20 21 23 23 16 17 19 17 18 19 18 19 17 13 11 12 12 14 14 15 15 16 18 19 19 20 18 17 17 17 19 18 19 17 17 17 15 16 15 14
15 17 19 20 21 24 25 25 25 24 24 23 23 22 22 24 21 21 24 24 20 17 18 14 16 20 25 28 23 15 15 18 15 14 15 15 13 12 12 10 13 15 17 17 18 20 21 21 20 19 17 18 18 18 18 18 18 17 16 16 16 14 14
16 17 20 22 22 19 21 24 26 27 25 23 23 22 21 22 23 21 20 19 16 14 15 19 17 19 21 23 24 25 20 14 15 14 15 16 15 12 8 10 12 15 17 19 20 21 21 20 20 21 19 19 18 17 16 15 15 17 17 17 15 14 14
12 16 18 16 15 18 19 18 22 24 25 26 27 24 23 24 23 17 17 17 17 19 20 22 21 21 20 20 20 19 17 15 18 21 17 17 18 17 16 11 13 16 15 15 17 20 20 20 20 18 18 17 16 16 16 15 16 14 14 15 15 15 14
12 11 13 15 19 19 13 15 16 19 23 26 27 27 26 26 23 25 25 22 20 19 18 21 21 19 20 21 22 22 21 21 23 21 21 18 18 18 15 12 14 13 14 15 16 17 19 19 18 17 17 16 16 16 16 16 14 13 14 15 14 14 14
10 11 10 11 16 10 12 11 14 17 19 21 25 28 27 24 24 24 24 22 21 20 20 18 18 20 23 22 21 22 24 23 22 24 22 20 20 21 18 6 2 8 14 17 19 19 17 18 18 18 17 17 17 17 16 16 15 14 14 14 14 13 13
12 11 12 14 9 13 12 14 14 10 10 12 11 11 13 19 20 22 22 22 20 21 22 21 19 16 16 18 17 24 24 23 25 26 24 23 23 23 17 14 14 11 14 16 15 15 16 18 19 18 17 17 17 17 17 16 15 15 15 14 14 14 13
10 10 12 10 13 16 12 4 6 2 4 7 7 6 13 12 16 20 21 20 21 22 18 18 18 14 14 15 15 19 23 22 25 26 27 25 25 24 21 14 13 14 16 15 16 18 19 19 19 17 18 17 16 16 16 16 16 15 15 14 13 13 13
10 12 12 12 13 10 3 4 6 6 8 5 6 6 12 9 16 16 19 19 20 21 20 19 16 14 16 16 15 14 18 19 19 20 20 21 21 20 14 11 17 19 17 16 18 18 18 19 19 18 19 19 17 16 15 16 16 15 15 14 13 13 12
13 12 13 14 9 7 8 5 4 2 1 6 3 12 13 3 11 13 13 13 14 15 19 19 18 17 18 17 13 11 14 15 17 16 17 19 19 15 11 13 14 15 15 14 16 18 20 18 19 18 18 17 16 15 16 15 15 14 14 13 12 12 11
14 15 12 10 10 2 7 5 3 5 3 5 7 10 2 10 13 13 13 14 13 11 13 14 16 15 17 14 12 16 14 19 19 14 8 6 9 11 13 13 14 13 14 15 17 18 15 15 17 17 16 16 16 14 13 13 14 13 12 12 12 12 11
17 15 14 12 9 6 5 2 4 3 4 5 12 3 3 8 12 13 14 15 14 12 12 9 12 16 20 20 19 12 4 4 7 4 6 7 8 9 9 12 13 13 13 14 14 16 14 15 15 15 14 14 14 14 13 13 13 12 12 12 11 11 11
13 11 13 11 12 7 10 5 7 3 9 1 4 7 8 10 11 11 13 12 13 13 12 9 10 16 23 20 17 9 6 3 4 4 6 8 9 11 13 14 13 14 13 15 16 16 16 17 14 14 17 17 15 14 14 13 12 13 12 12 12 11 11
13 14 14 8 5 7 6 5 6 4 3 6 6 6 8 7 7 8 9 10 10 12 13 11 10 10 12 5 5 7 7 7 7 7 8 9 10 10 11 12 13 15 14 14 15 16 15 14 15 15 16 16 15 16 15 12 12 12 11 11 11 10 10
12 9 5 7 7 8 5 6 7 4 2 1 3 5 5 5 4 6 7 9 10 10 11 9 7 7 2 5 3 4 6 8 9 10 9 10 10 11 12 13 14 15 16 18 17 17 16 17 15 14 15 17 18 16 13 12 12 11 11 11 10 10 9
8 13 10 6 5 7 8 8 7 6 7 5 2 4 4 4 4 5 6 7 5 6 6 4 4 4 2 5 4 8 8 8 10 10 11 11 12 13 14 15 15 16 18 18 18 18 16 16 14 13 14 15 16 15 13 12 12 12 12 11 10 9 8
5 3 3 6 7 9 11 11 10 10 8 8 7 6 5 7 8 5 8 6 6 6 1 3 4 7 12 13 9 9 11 12 13 14 14 14 14 15 16 17 17 17 18 17 18 18 18 16 15 14 14 12 12 12 12 12 12 12 12 11 10 10 10
1 4 5 10 11 11 11 8 8 10 12 14 11 10 10 12 12 8 6 7 9 8 9 12 12 14 14 13 11 11 12 12 12 13 14 14 14 14 14 15 16 17 17 17 18 17 15 14 13 14 13 12 11 11 11 11 11 11 12 12 13 12 12
3 13 7 10 13 15 15 14 12 10 12 15 19 19 13 11 12 14 14 12 10 11 13 12 12 12 12 12 12 14 13 14 13 13 13 13 14 13 14 14 14 14 15 17 17 17 15 14 14 13 14 13 13 12 11 11 11 11 10 11 11 13 12
4 4 8 11 7 7 9 13 12 12 15 18 19 18 19 17 13 12 15 17 16 15 14 14 13 15 13 15 15 17 15 14 13 12 13 13 14 14 13 14 16 16 16 16 16 16 14 13 13 13 13 12 12 13 12 11 11 11 11 10 11 11 10
2 3 7 10 13 13 8 8 10 11 14 19 20 19 18 17 17 17 16 16 16 18 18 16 17 16 16 17 18 18 16 14 13 13 13 13 13 14 15 15 16 16 15 15 16 15 13 12 12 12 11 10 10 11 10 10 10 11 10 9 9 9 9
8 1 6 8 8 10 9 9 10 12 13 17 20 19 17 17 17 17 18 18 18 16 17 19 19 18 18 18 18 18 16 15 14 15 14 14 14 14 14 14 14 15 14 14 14 14 12 12 12 11 11 10 9 9 10 10 10 9 9 8 8 8 8
4 7 10 11 12 11 10 11 12 13 14 16 17 17 17 17 17 17 18 17 18 19 18 18 19 19 19 19 18 17 15 14 13 12 13 13 15 14 13 14 14 13 12 12 11 11 11 11 11 11 11 9 8 9 9 9 9 9 9 8 9 9 11
Wind_Direction
209 208 207 216 223 219 191 207 220 219 211 223 235 250 241 232 236 238 233 234 223 230 233 214 209 222 225 213 224 225 223 227 208 207 197 195 203 208 212 212 204 199 193 190 191 190 190 190 190 191 187 187 187 185 186 187 188 188 190 190 191 192 194
209 208 206 221 219 232 212 208 218 220 223 231 235 232 226 239 237 230 230 236 235 223 228 199 228 217 206 222 223 224 230 227 221 196 213 200 200 210 213 208 200 198 195 192 191 191 191 190 189 188 185 185 185 185 185 184 186 188 188 187 189 189 191
196 204 204 215 226 221 237 232 196 219 196 217 218 233 227 227 228 244 228 236 241 227 222 196 218 227 201 215 219 223 223 226 221 200 204 215 203 208 209 205 199 197 196 194 193 194 193 190 186 186 184 182 184 185 185 186 187 189 187 187 187 188 190
179 195 198 216 207 216 228 242 233 207 232 220 218 219 240 239 244 231 229 237 237 220 240 210 207 226 214 214 218 221 230 232 217 193 200 202 208 213 203 200 198 198 198 196 195 194 191 188 186 185 184 184 186 186 184 188 188 188 189 189 185 187 190
180 205 198 215 207 201 206 218 230 219 210 230 231 224 222 226 235 238 241 233 231 236 234 226 214 229 211 219 225 221 220 234 241 203 197 193 193 205 209 203 198 198 198 198 197 196 193 189 186 186 185 186 187 187 187 189 189 189 191 190 187 189 191
203 215 205 216 218 213 213 210 218 225 220 205 218 225 213 221 231 232 238 240 238 220 229 235 211 227 230 221 220 204 209 215 232 221 196 189 193 199 207 207 207 204 199 198 196 196 195 191 189 189 186 187 189 191 191 192 193 194 196 191 190 187 191
203 216 218 207 224 230 224 214 217 219 232 226 216 224 220 224 231 237 240 253 234 221 222 228 207 205 229 220 223 209 195 209 214 224 229 192 176 191 202 207 212 208 199 200 195 193 196 194 189 189 188 190 191 192 192 193 196 197 198 194 190 187 190
236 204 219 219 209 227 231 223 221 215 221 228 232 232 226 232 223 222 226 236 238 230 237 236 189 205 229 222 194 209 204 215 225 237 250 195 151 173 194 199 214 214 203 194 197 192 192 193 187 190 190 189 191 192 194 194 198 198 197 195 189 188 190
237 224 198 223 207 207 226 227 217 217 220 225 229 235 227 231 230 234 227 239 223 213 244 233 219 193 217 236 226 211 219 223 232 243 241 133 132 163 191 202 211 206 200 190 194 190 185 192 191 190 191 188 190 191 194 196 198 198 196 195 190 189 192
207 207 203 201 203 203 209 227 228 217 222 221 217 221 230 238 223 230 234 238 229 224 224 226 231 218 196 209 226 226 222 232 236 239 227 136 176 176 188 196 209 207 199 181 182 185 181 188 192 186 190 190 189 190 194 197 196 196 195 195 193 189 192
217 223 230 203 210 209 213 213 226 229 223 226 221 225 231 232 222 232 234 251 254 227 219 220 221 219 201 198 207 235 246 219 213 229 159 152 166 176 186 193 206 205 196 188 183 185 183 188 190 189 191 194 191 187 193 197 195 193 193 194 193 191 192
242 231 225 227 211 227 217 218 216 225 232 220 223 221 228 232 238 234 232 228 235 250 248 232 219 207 210 214 235 241 236 257 247 168 134 158 166 175 184 190 198 200 200 188 181 184 185 186 186 187 190 193 195 189 192 194 195 192 191 193 194 193 189
225 243 254 237 228 236 245 219 219 223 223 232 227 226 231 226 229 240 228 222 229 235 242 247 239 221 212 209 218 237 236 227 222 222 183 184 185 183 186 190 193 193 192 187 184 183 182 181 183 186 188 191 193 191 193 193 195 194 186 188 192 193 188
220 224 237 246 250 239 231 239 229 224 228 227 236 238 230 231 238 240 241 236 233 228 234 237 245 254 241 213 214 226 226 221 239 244 223 211 209 189 190 191 191 193 193 185 182 181 182 183 183 185 186 187 189 187 189 191 195 192 181 185 187 190 189
241 232 228 234 239 245 247 235 232 235 223 224 227 235 239 238 237 240 240 240 242 240 235 234 231 243 253 250 209 215 221 225 226 230 241 247 240 218 202 178 191 188 191 189 183 182 185 186 185 184 183 185 185 187 188 189 191 190 184 179 183 185 185
241 238 245 241 238 237 241 242 242 231 235 234 225 222 227 235 236 236 241 241 236 231 240 235 232 236 238 247 251 214 213 225 221 233 245 247 241 213 218 223 192 185 186 190 190 187 187 187 185 183 181 182 184 187 185 188 187 187 182 177 181 181 181
234 230 235 239 242 244 243 237 233 241 239 232 241 236 229 230 236 237 233 240 246 242 233 240 228 226 238 242 240 248 242 233 232 226 238 251 255 252 215 201 183 191 191 193 195 192 186 186 185 186 180 179 182 184 182 183 182 185 182 177 174 178 177
232 231 234 241 245 234 233 238 239 236 241 245 236 233 227 226 221 235 241 243 237 235 237 238 235 229 227 234 243 241 245 255 252 247 234 239 249 248 245 214 184 194 194 199 198 194 188 187 186 181 181 180 178 180 177 178 181 184 176 170 173 176 175
231 229 233 231 232 240 241 236 242 244 249 252 259 253 236 235 237 235 231 232 239 238 233 234 238 241 240 235 241 244 236 239 247 241 235 226 234 247 250 234 207 187 193 198 193 191 190 184 180 179 180 180 176 179 177 178 177 176 171 171 171 172 174
230 230 216 233 232 256 261 256 244 237 239 244 246 253 260 246 230 239 244 237 227 233 238 236 233 233 235 241 241 242 245 244 240 238 233 227 225 233 241 238 117 205 197 195 192 189 187 178 176 180 178 177 175 177 175 172 174 173 171 171 169 171 174
227 224 233 241 281 261 240 245 244 247 256 257 263 280 266 264 250 237 239 247 244 233 228 233 237 230 230 235 233 238 239 232 239 244 235 229 230 238 231 190 208 208 196 194 189 177 183 182 174 179 175 173 173 171 170 169 169 171 172 171 171 170 172
217 233 230 237 237 243 233 287 54 333 346 331 332 309 269 274 291 267 245 239 248 256 251 238 227 232 243 239 237 231 235 234 231 235 238 229 231 232 229 185 187 190 189 188 175 179 180 184 172 171 171 168 168 167 166 164 167 169 170 173 172 170 172
210 224 237 227 235 236 73 56 324 20 352 320 345 297 260 254 264 270 267 255 238 236 245 244 237 236 235 237 240 231 231 237 235 232 226 230 227 225 214 182 179 179 176 180 172 178 178 180 170 167 170 164 163 164 165 165 167 167 170 170 171 169 170
218 223 225 234 231 234 154 142 208 279 258 46 321 241 245 347 344 328 321 305 310 294 252 240 238 231 236 237 239 238 239 237 239 236 228 224 228 221 191 183 173 168 162 169 168 178 178 177 169 165 166 161 159 159 162 163 165 166 167 165 167 166 164
215 218 233 243 237 98 144 147 188 228 297 265 227 237 345 347 321 329 314 311 300 307 314 265 240 231 243 248 244 250 260 245 231 221 209 207 210 202 182 172 157 157 165 169 173 177 173 164 164 162 162 155 151 156 156 159 159 158 157 156 159 157 157
217 212 228 234 251 163 150 107 261 113 202 229 246 43 315 298 324 318 322 312 308 307 302 304 267 246 237 234 235 229 249 310 62 112 153 172 182 178 174 139 149 156 162 162 168 166 156 161 163 158 148 141 143 145 148 145 149 146 143 145 148 148 148
222 220 224 227 233 147 193 144 221 176 251 337 10 335 320 311 296 315 318 315 310 302 291 294 304 281 250 230 222 223 226 205 164 163 157 161 155 131 124 137 147 153 150 159 168 158 159 159 151 142 140 134 133 134 134 130 125 127 132 135 137 139 140
220 216 221 233 269 127 180 211 242 108 338 345 336 332 298 313 319 311 307 297 315 307 295 287 288 296 304 291 176 190 181 171 162 148 133 134 128 142 150 146 153 156 151 149 139 145 142 134 138 136 127 123 121 116 113 113 118 120 123 126 129 131 133
222 241 217 93 117 121 114 97 95 100 57 77 327 276 297 316 319 318 303 308 295 284 278 273 276 239 225 57 351 206 169 155 146 137 136 138 151 154 151 142 138 139 139 140 137 132 137 134 127 119 115 114 112 111 114 118 119 123 122 124 124 128 133
100 81 77 112 88 103 108 83 66 66 71 72 33 13 356 28 348 350 341 326 316 290 305 259 182 157 86 85 222 219 188 151 133 135 138 137 132 131 129 130 133 132 130 126 121 115 107 104 106 110 114 116 117 121 126 126 128 127 128 128 129 126 123
221 135 73 121 120 102 94 82 76 73 70 81 89 88 59 42 38 34 46 30 37 50 234 189 165 182 182 172 158 108 92 95 97 102 105 105 107 112 114 114 116 116 113 107 104 104 102 101 104 105 105 104 110 121 127 133 134 132 129 126 125 130 138
214 121 111 83 83 77 79 85 88 79 69 64 73 94 81 47 39 36 49 31 39 53 71 69 80 77 83 95 101 99 88 84 81 84 85 91 98 99 102 107 106 107 107 106 102 99 98 100 101 105 109 111 114 118 124 125 125 128 134 139 143 145 144
161 131 188 127 100 85 80 78 70 64 69 67 53 41 56 88 73 50 58 71 68 55 50 60 82 92 93 95 98 89 79 72 70 69 72 74 75 79 86 90 95 98 102 103 104 105 109 114 114 116 118 122 128 133 134 131 136 134 132 142 141 138 138
282 198 161 152 174 120 74 58 66 77 75 73 66 61 52 46 62 76 69 64 62 64 71 75 76 81 83 76 69 67 66 67 70 76 80 80 79 79 79 82 84 85 88 93 94 94 95 98 103 107 115 126 135 135 128 132 133 130 139 142 142 140 142
218 86 88 63 81 87 70 47 28 53 69 69 66 58 53 47 42 45 50 57 55 52 49 48 58 59 59 60 65 68 63 57 59 69 75 79 82 82 81 82 81 82 83 85 88 90 93 95 99 103 105 106 103 110 120 126 132 137 147 147 145 137 140
118 103 93 80 86 92 80 54 42 41 53 69 66 55 48 46 42 40 43 41 43 42 44 44 41 46 51 54 55 57 57 55 54 53 56 66 71 73 72 72 73 75 76 77 81 85 90 93 94 94 94 95 101 111 117 124 131 141 146 150 143 143 152
81 87 86 87 89 87 79 62 50 42 41 58 61 51 40 35 37 39 37 37 37 37 35 33 34 33 40 45 47 48 48 46 46 56 62 61 60 63 67 68 68 70 73 76 79 82 85 89 91 93 95 94 96 102 112 123 138 142 157 158 150 158 126